Flag for Hungary Weather past 2 weeks in Szeged, Hungary

Now
76 °F

Passing clouds.


Feels Like: 78 °F
Forecast: 56 / 81 °F
Wind: 2 mph from Southwest

Location: Szeged

Current Time: May 30, 2015 at 5:09:00 PM

Latest Report: May 30, 2015 at 4:00 PM


Visibility: 25 mi

Pressure: 29.95 "Hg

Humidity: 39%

Dew point: 49 °F

Location of SzegedLocation

Historic Weather in Szeged — Graph

°F

Szeged temperature yesterday

Maximum temperature yesterday: 71 °F (at 4:00 PM)
Minimum temperature yesterday: 42 °F (at 6:00 AM)
Average temperature yesterday: 58 °F

Past Weeks' High & Low Weather Summary

 TemperatureHumidityPressure
High87 °F (May 19, 6:00 PM)97% (May 22, 8:00 AM)30.16 "Hg (May 22, 8:00 AM)
Low42 °F (May 29, 6:00 AM)28% (May 19, 5:00 PM)29.70 "Hg (May 26, 6:00 PM)
Average62 °F76%29.93 "Hg
* Reported May 15 3:00 PM — May 30 3:00 PM, Szeged, Weather by CustomWeather, © 2015

Note: Actual official high and low records may vary slightly from our data, if they occured in-between our weather recording intervals... More about our weather records

Advertising

Szeged weather history for previous 24 hours

 ConditionsComfort  
Time TempWeatherWind HumidityBarometerVisibility
3:00 PM
Sat, May 30
75 °FPassing clouds.2 mph43%29.96 "Hg25 mi
2:00 PM74 °FPassing clouds.3 mph44%29.97 "Hg25 mi
1:00 PM72 °FPassing clouds.5 mph45%29.98 "Hg22 mi
12:00 PM71 °FPassing clouds.5 mph53%29.99 "Hg25 mi
11:00 AM70 °FPassing clouds.5 mph59%29.99 "Hg22 mi
10:00 AM68 °FPassing clouds.3 mph64%30.00 "Hg12 mi
9:00 AM64 °FPassing clouds.3 mph69%29.99 "Hg11 mi
8:00 AM60 °FPassing clouds.2 mph73%29.98 "Hg10 mi
7:00 AM55 °FFog.1 mph86%29.98 "Hg3 mi
6:00 AM50 °FFog.1 mph92%29.97 "Hg2 mi
5:00 AM51 °FFog.2 mph93%29.96 "Hg2 mi
4:00 AM51 °FPassing clouds.2 mph94%29.96 "Hg4 mi
3:00 AM51 °FPassing clouds.2 mph93%29.97 "Hg9 mi
2:00 AM53 °FPassing clouds.2 mph90%29.98 "Hg9 mi
1:00 AM54 °FPassing clouds.2 mph89%29.98 "Hg16 mi
12:00 AM56 °FOvercast.2 mph86%29.98 "Hg19 mi
11:00 PM
Fri, May 29
57 °FPassing clouds.2 mph83%29.98 "Hg19 mi
10:00 PM58 °FPassing clouds.1 mph84%29.98 "Hg19 mi
9:00 PM61 °FPassing clouds.1 mph76%29.97 "Hg19 mi
8:00 PM66 °FPassing clouds.1 mph61%29.95 "Hg22 mi
7:00 PM69 °FScattered clouds.2 mph52%29.96 "Hg25 mi
6:00 PM70 °FPartly sunny.1 mph51%29.96 "Hg25 mi
5:00 PM71 °FScattered clouds.No wind45%29.97 "Hg25 mi
Weather by CustomWeather, © 2015

See weather overviewHow to use our weather pages